Skip Page Navigation
NASA JPL Caltech
NASA Logo - Jet Propulsion Laboratory + View the NASA Portal
+ Center for Near-Earth Object Studies
JPL Home Earth Solar System Stars & Galaxies Technology
JPL Solar System Dynamics
BODIES ORBITS EPHEMERIDES TOOLS PHYSICAL DATA DISCOVERY FAQ SITE MAP
JPL Small-Body Database Browser
Search: [ help ]  
535029 (2014 WG510)
Classification: TransNeptunian Object          SPK-ID: 2535029
Ephemeris | Orbit Diagram | Orbital Elements | Physical Parameters | Discovery Circumstances ]

[ hide orbit diagram ]

For accurate long-term ephemerides, please instead use our Horizons system.This orbit viewer was implemented using two-body methods, and hence should not be used for determining accurate long-term trajectories (over several years or decades) or planetary encounter circumstances.


[ revert to old Java-based viewer ]

Orbital Elements at Epoch 2459000.5 (2020-May-31.0) TDB
Reference: JPL 5 (heliocentric ecliptic J2000)
 Element Value Uncertainty (1-sigma)   Units 
e .2156910051552619 3.3326e-05  
a 39.086087254113 0.0012803 au
q 30.65556980668709 0.0011289 au
i 17.48706831081308 1.9359e-05 deg
node 167.3714307557138 0.00036392 deg
peri 176.5111821627268 0.0056043 deg
M 68.22440994570414 0.0062931 deg
tp 2442085.616531566520
(1974-Feb-07.11653157)
0.73063 TDB
period 89254.8290777776
244.37
4.3853
0.01201
d
yr
n .004033395209196941 1.9817e-07 deg/d
Q 47.5166047015389 0.0015564 au
  Orbit Determination Parameters
   # obs. used (total)      99  
   data-arc span      2679 days (7.33 yr)  
   first obs. used      2010-09-06  
   last obs. used      2018-01-06  
   planetary ephem.      DE431  
   SB-pert. ephem.      SB431-N16  
   condition code      2  
   norm. resid. RMS      .59364  
   source      ORB  
   producer      Otto Matic  
   solution date      2019-May-30 11:27:49  

Additional Information
 Earth MOID = 29.6484 au 
 Jupiter MOID = 25.6754 au 
 T_jup = 5.238 
[ show covariance matrix ]

Ephemeris | Orbit Diagram | Orbital Elements | Physical Parameters | Discovery Circumstances ]

Physical Parameter Table
Parameter Symbol Value Units Sigma Reference Notes
absolute magnitude H 6.7   n/a E2018Y78  

535029 (2014 WG510)          Discovered 2010-Sep-06 by Pan-STARRS 1 at Haleakala
Reference: Last Updated: 2019-05-29
Ephemeris | Orbit Diagram | Orbital Elements | Physical Parameters | Discovery Circumstances ]
ABOUT SSD CREDITS/AWARDS PRIVACY/COPYRIGHT GLOSSARY LINKS
FirstGov 2020-Aug-08 15:49 UT
(server date/time)  
NASA Home Page
Site Manager:   Ryan S. Park
Webmaster  Alan B. Chamberlin